Voltar ao catálogo

QB50P2

AtivoCiênciaPO
NORAD 40032·PAYLOAD·🇧🇪 Belgium

Lançado Jun 19, 2014 de Dombarovsky

Loading…

Próximas Passagens (próximas 24 horas)

TLE

AtualizadoSource: Space-Track

Época: Sep 13, 2026, 13:32 UTC

1 40032U 14033Y   26256.56424095  .00005612  00000-0  29456-3 0  9999
2 40032  98.0801 259.0437 0006062 224.1911 135.8836 15.16169190666057

Acompanhe QB50P2 em tempo real com AllMySat

Download on the App Store